TimeCST,TemperatureF,Dew PointF,Humidity,Sea Level PressureIn,VisibilityMPH,Wind Direction,Wind SpeedMPH,Gust SpeedMPH,PrecipitationIn,Events,Conditions,WindDirDegrees,DateUTC
12:15 AM,41.9,36.0,79,29.82,10.0,West,12.7,-,N/A,,Clear,260,2013-11-18 06:15:00
12:35 AM,40.6,36.0,83,29.82,10.0,WSW,12.7,-,N/A,,Clear,250,2013-11-18 06:35:00
12:55 AM,41.0,36.3,83,29.83,10.0,WSW,13.8,-,N/A,,Clear,250,2013-11-18 06:55:00
1:15 AM,41.2,36.5,83,29.83,10.0,West,12.7,19.6,N/A,,Clear,260,2013-11-18 07:15:00
1:35 AM,40.3,36.5,86,29.84,10.0,WSW,11.5,-,N/A,,Clear,250,2013-11-18 07:35:00
1:55 AM,40.3,36.9,88,29.84,10.0,West,12.7,-,N/A,,Clear,260,2013-11-18 07:55:00
2:15 AM,40.3,37.4,89,29.84,10.0,WSW,12.7,-,N/A,,Clear,250,2013-11-18 08:15:00
2:35 AM,40.6,37.4,88,29.85,10.0,WSW,15.0,21.9,N/A,,Clear,250,2013-11-18 08:35:00
2:55 AM,40.8,36.7,85,29.86,10.0,WSW,16.1,21.9,N/A,,Clear,250,2013-11-18 08:55:00
3:15 AM,40.3,36.5,86,29.87,10.0,West,13.8,-,N/A,,Clear,260,2013-11-18 09:15:00
3:35 AM,39.7,35.2,84,29.87,10.0,West,16.1,20.7,N/A,,Clear,260,2013-11-18 09:35:00
3:55 AM,39.2,34.0,82,29.88,10.0,West,13.8,20.7,N/A,,Clear,260,2013-11-18 09:55:00
4:15 AM,39.0,33.3,80,29.88,10.0,West,15.0,-,N/A,,Clear,260,2013-11-18 10:15:00
4:35 AM,38.5,32.9,80,29.89,10.0,West,13.8,18.4,N/A,,Clear,260,2013-11-18 10:35:00
4:55 AM,38.3,32.9,81,29.89,10.0,West,12.7,-,N/A,,Clear,270,2013-11-18 10:55:00
5:15 AM,37.8,33.3,84,29.90,10.0,West,13.8,-,N/A,,Clear,260,2013-11-18 11:15:00
5:35 AM,37.4,33.3,85,29.90,10.0,West,13.8,-,N/A,,Clear,260,2013-11-18 11:35:00
5:55 AM,37.2,32.9,84,29.91,10.0,West,11.5,20.7,N/A,,Clear,260,2013-11-18 11:55:00
6:15 AM,37.0,32.9,85,29.91,10.0,West,13.8,19.6,N/A,,Clear,260,2013-11-18 12:15:00
6:35 AM,36.5,32.7,86,29.92,10.0,West,12.7,18.4,N/A,,Clear,260,2013-11-18 12:35:00
6:55 AM,36.0,32.4,87,29.94,10.0,West,12.7,-,N/A,,Clear,270,2013-11-18 12:55:00
7:15 AM,37.0,32.4,83,29.94,10.0,West,15.0,23.0,N/A,,Clear,270,2013-11-18 13:15:00
7:35 AM,37.9,32.4,80,29.95,10.0,West,17.3,21.9,N/A,,Clear,270,2013-11-18 13:35:00
7:55 AM,38.5,33.1,81,29.96,10.0,West,15.0,23.0,N/A,,Clear,260,2013-11-18 13:55:00
8:15 AM,39.2,33.8,81,29.97,10.0,West,16.1,20.7,N/A,,Scattered Clouds,270,2013-11-18 14:15:00
8:35 AM,39.4,33.4,79,29.99,10.0,West,21.9,27.6,N/A,,Mostly Cloudy,270,2013-11-18 14:35:00
8:55 AM,39.6,32.2,75,30.00,10.0,West,23.0,32.2,N/A,,Mostly Cloudy,280,2013-11-18 14:55:00
9:15 AM,40.6,32.4,72,30.01,10.0,West,25.3,32.2,N/A,,Mostly Cloudy,280,2013-11-18 15:15:00
9:35 AM,41.4,32.9,72,30.02,10.0,West,24.2,28.8,N/A,,Overcast,270,2013-11-18 15:35:00
9:55 AM,41.4,32.4,70,30.03,10.0,West,18.4,25.3,N/A,,Mostly Cloudy,280,2013-11-18 15:55:00
10:15 AM,40.8,32.2,71,30.04,10.0,West,18.4,26.5,N/A,,Mostly Cloudy,280,2013-11-18 16:15:00
10:35 AM,40.8,32.2,71,30.04,10.0,West,18.4,26.5,N/A,,Mostly Cloudy,280,2013-11-18 16:35:00
10:55 AM,41.9,32.0,68,30.04,10.0,West,21.9,27.6,N/A,,Scattered Clouds,270,2013-11-18 16:55:00
11:15 AM,42.6,32.9,68,30.04,10.0,West,17.3,27.6,N/A,,Clear,270,2013-11-18 17:15:00
11:35 AM,42.8,32.2,66,30.04,10.0,West,21.9,28.8,N/A,,Scattered Clouds,280,2013-11-18 17:35:00
11:55 AM,43.3,32.2,65,30.04,10.0,West,20.7,26.5,N/A,,Scattered Clouds,280,2013-11-18 17:55:00
12:15 PM,44.2,32.7,64,30.05,10.0,West,20.7,25.3,N/A,,Scattered Clouds,270,2013-11-18 18:15:00
12:35 PM,44.4,32.2,62,30.05,10.0,West,19.6,27.6,N/A,,Scattered Clouds,280,2013-11-18 18:35:00
12:55 PM,43.9,30.9,60,30.06,10.0,West,21.9,27.6,N/A,,Scattered Clouds,280,2013-11-18 18:55:00
1:15 PM,44.6,31.8,61,30.06,10.0,West,25.3,29.9,N/A,,Scattered Clouds,270,2013-11-18 19:15:00
1:35 PM,44.6,31.3,60,30.07,10.0,West,24.2,32.2,N/A,,Scattered Clouds,280,2013-11-18 19:35:00
1:55 PM,44.6,29.7,56,30.07,10.0,WNW,21.9,28.8,N/A,,Scattered Clouds,290,2013-11-18 19:55:00
2:15 PM,44.2,29.1,55,30.08,10.0,WNW,18.4,29.9,N/A,,Clear,290,2013-11-18 20:15:00
2:35 PM,44.6,30.9,59,30.09,10.0,WNW,19.6,27.6,N/A,,Scattered Clouds,290,2013-11-18 20:35:00
2:55 PM,43.9,30.0,58,30.09,10.0,West,21.9,28.8,N/A,,Scattered Clouds,280,2013-11-18 20:55:00
3:15 PM,43.3,29.3,58,30.11,10.0,WNW,16.1,26.5,N/A,,Clear,290,2013-11-18 21:15:00
3:35 PM,42.8,29.1,58,30.11,10.0,West,17.3,24.2,N/A,,Clear,280,2013-11-18 21:35:00
3:55 PM,42.1,27.7,57,30.12,10.0,WNW,18.4,24.2,N/A,,Clear,290,2013-11-18 21:55:00
4:15 PM,41.0,28.9,62,30.13,10.0,WNW,12.7,25.3,N/A,,Clear,290,2013-11-18 22:15:00
4:35 PM,40.1,28.6,63,30.14,10.0,West,13.8,21.9,N/A,,Clear,280,2013-11-18 22:35:00
4:55 PM,39.7,27.0,60,30.15,10.0,WNW,12.7,17.3,N/A,,Clear,300,2013-11-18 22:55:00
5:15 PM,39.2,26.6,61,30.16,10.0,WNW,8.1,-,N/A,,Clear,300,2013-11-18 23:15:00
5:35 PM,38.3,26.6,63,30.16,10.0,WNW,8.1,-,N/A,,Clear,290,2013-11-18 23:35:00
5:55 PM,37.4,26.6,65,30.17,10.0,WNW,8.1,-,N/A,,Clear,290,2013-11-18 23:55:00
6:15 PM,34.9,27.3,74,30.18,10.0,West,4.6,-,N/A,,Clear,270,2013-11-19 00:15:00
6:35 PM,34.3,28.0,78,30.18,10.0,West,5.8,-,N/A,,Clear,270,2013-11-19 00:35:00
6:55 PM,34.2,27.9,78,30.19,10.0,West,5.8,-,N/A,,Clear,260,2013-11-19 00:55:00
7:15 PM,32.0,27.5,83,30.20,10.0,West,3.5,-,N/A,,Clear,280,2013-11-19 01:15:00
7:35 PM,32.0,27.9,85,30.20,10.0,West,5.8,-,N/A,,Clear,270,2013-11-19 01:35:00
7:55 PM,31.6,27.7,85,30.20,10.0,WNW,5.8,-,N/A,,Clear,290,2013-11-19 01:55:00
8:15 PM,32.5,27.3,81,30.20,10.0,West,5.8,-,N/A,,Clear,280,2013-11-19 02:15:00
8:35 PM,32.9,27.5,81,30.22,10.0,West,4.6,-,N/A,,Clear,280,2013-11-19 02:35:00
8:55 PM,31.6,27.1,83,30.22,10.0,West,4.6,-,N/A,,Clear,270,2013-11-19 02:55:00
9:15 PM,31.3,27.1,85,30.22,10.0,Calm,Calm,-,N/A,,Clear,0,2013-11-19 03:15:00
9:35 PM,32.7,26.6,78,30.23,10.0,WNW,4.6,-,N/A,,Clear,300,2013-11-19 03:35:00
9:55 PM,32.5,26.4,78,30.23,10.0,WNW,4.6,-,N/A,,Clear,300,2013-11-19 03:55:00
10:15 PM,32.0,26.2,79,30.23,10.0,WNW,5.8,-,N/A,,Clear,290,2013-11-19 04:15:00
10:35 PM,31.6,25.9,79,30.24,10.0,West,4.6,-,N/A,,Clear,280,2013-11-19 04:35:00
10:55 PM,31.5,26.1,80,30.24,10.0,WNW,6.9,-,N/A,,Clear,290,2013-11-19 04:55:00
11:15 PM,32.0,26.1,79,30.26,10.0,NW,4.6,-,N/A,,Clear,310,2013-11-19 05:15:00
11:35 PM,32.0,25.7,78,30.26,10.0,NW,4.6,-,N/A,,Clear,320,2013-11-19 05:35:00
11:55 PM,31.8,25.7,78,30.27,10.0,NW,4.6,-,N/A,,Clear,310,2013-11-19 05:55:00